Temp
62 62 62 61 60 59 57 56 52 48 51 56 52 58 59 59 58 58 59 56 59 61 62 63 62 60 61 62 64 64 64 62 62 63 64 63 62 63
59 59 61 62 60 60 59 58 56 52 49 57 54 53 58 58 57 59 58 54 56 59 60 59 59 60 59 60 61 61 61 62 63 63 64 63 62 62
59 59 59 62 58 60 58 58 56 52 54 50 53 54 55 57 57 57 57 57 57 56 58 59 59 59 58 59 58 59 60 60 61 63 63 63 62 62
58 58 58 59 58 59 58 56 57 53 51 51 50 49 51 54 57 56 56 57 57 56 56 57 57 57 57 57 56 57 57 58 58 59 60 61 62 62
60 59 59 59 59 58 58 58 56 55 52 51 49 49 49 49 50 50 51 53 55 53 55 56 57 57 56 56 55 55 55 55 55 56 57 58 59 60
61 60 60 59 59 58 56 57 58 56 53 52 49 48 49 49 49 51 47 48 53 53 54 54 55 55 55 56 54 53 52 53 54 55 54 54 55 56
60 60 60 58 55 58 57 56 56 55 55 54 49 47 47 46 49 49 50 49 49 52 53 53 53 53 54 54 53 51 51 52 53 53 54 54 53 54
58 59 60 52 52 53 54 55 57 56 54 54 54 52 53 53 50 50 51 46 45 48 50 50 49 50 51 51 52 52 52 52 52 52 52 53 53 53
59 58 57 57 54 56 53 53 53 53 56 57 55 55 55 54 51 48 50 48 49 48 48 48 46 46 49 48 51 51 51 51 51 51 51 51 51 52
59 59 58 57 56 56 56 55 55 54 55 56 58 58 57 55 56 55 52 50 47 46 48 45 43 43 42 43 49 48 49 50 50 50 51 50 50 50
59 59 59 58 54 53 55 54 54 55 53 52 53 53 52 52 54 51 47 45 43 44 44 45 41 39 38 39 42 46 45 45 47 50 50 50 50 49
57 58 52 58 52 52 56 55 53 54 53 52 52 50 50 50 49 54 50 46 41 39 41 43 38 39 37 36 37 37 38 43 45 47 49 50 49 46
55 56 57 52 51 51 54 56 55 56 52 53 52 51 50 50 50 51 50 50 40 41 43 41 36 35 35 35 36 36 36 37 38 41 47 49 48 46
55 56 57 50 49 49 51 53 51 51 52 51 49 48 47 47 47 48 47 45 44 45 44 40 35 37 36 34 35 34 34 35 35 37 38 44 48 48
57 55 51 49 49 49 50 49 49 52 49 46 45 43 45 46 38 35 35 35 34 35 39 39 36 36 35 35 35 33 33 34 34 35 35 36 38 39
50 52 51 50 51 52 49 49 52 50 47 45 44 37 35 36 35 35 33 34 33 32 32 35 36 36 34 34 34 33 33 34 32 33 33 34 35 35
51 50 48 49 49 47 48 49 47 47 42 40 36 35 35 35 33 34 33 33 33 32 30 31 32 34 33 34 33 33 32 32 32 32 31 31 33 33
37 34 34 37 40 38 42 38 39 43 40 38 38 37 35 35 34 33 33 34 33 31 30 30 30 31 32 32 34 32 31 32 31 30 30 30 30 32
32 32 30 32 32 33 33 33 32 33 34 36 36 35 35 34 34 33 33 34 32 32 30 30 31 32 31 31 29 34 31 29 29 28 29 28 28 30
26 26 27 29 31 32 32 32 32 32 33 33 33 33 33 33 33 33 33 33 32 30 29 29 30 31 32 32 30 27 31 27 26 27 26 27 28 32
24 25 26 27 28 30 31 32 32 32 32 32 32 33 33 33 32 32 33 33 32 30 28 28 30 33 29 29 28 24 25 32 28 24 19 19 19 20
23 24 25 26 27 28 28 29 29 30 31 31 31 32 32 32 32 32 32 31 30 30 28 28 28 28 27 27 24 21 22 25 28 31 32 29 19 17
23 23 24 25 26 26 27 27 27 28 28 29 30 30 31 30 31 31 31 30 29 28 26 24 24 24 22 22 22 19 19 18 20 22 23 32 33 34
MSLP
1013.61 1014.27 1014.79 1015.39 1015.95 1016.65 1017.47 1018.06 1018.98 1019.76 1019.73 1019.59 1020.14 1019.96 1020.31 1020.72 1020.75 1021.47 1021.82 1022.23 1022.48 1022.80 1023.18 1023.45 1023.61 1023.91 1024.24 1024.47 1024.60 1024.77 1025.04 1025.44 1025.77 1026.14 1026.31 1026.43 1026.88 1027.24
1012.61 1013.36 1014.04 1014.68 1015.31 1015.67 1016.25 1017.09 1017.74 1018.39 1018.92 1018.87 1019.18 1019.31 1019.44 1019.97 1020.20 1020.60 1021.06 1021.54 1021.83 1022.18 1022.54 1022.83 1023.01 1023.20 1023.67 1023.91 1024.12 1024.28 1024.47 1024.54 1024.74 1025.05 1025.43 1025.59 1025.64 1026.26
1011.51 1012.10 1012.95 1013.34 1014.16 1014.82 1015.53 1016.10 1016.87 1017.35 1017.93 1018.39 1018.49 1018.89 1019.25 1019.33 1019.68 1020.09 1020.53 1020.89 1021.13 1021.47 1021.86 1022.11 1022.36 1022.64 1022.93 1023.20 1023.46 1023.66 1023.81 1024.02 1024.18 1024.29 1024.52 1024.82 1025.04 1025.22
1010.30 1011.10 1011.57 1012.03 1012.82 1013.66 1014.47 1015.33 1015.83 1016.42 1017.00 1017.66 1018.16 1018.66 1018.78 1018.81 1018.90 1019.51 1019.83 1020.26 1020.52 1020.72 1021.14 1021.35 1021.68 1021.97 1022.32 1022.54 1022.75 1023.02 1023.24 1023.46 1023.60 1023.80 1023.91 1024.05 1024.15 1024.26
1008.63 1009.56 1010.35 1010.80 1011.66 1012.49 1013.31 1014.12 1014.72 1015.42 1016.02 1016.52 1017.60 1018.08 1018.45 1018.47 1019.01 1019.36 1019.74 1019.99 1020.03 1020.31 1020.52 1020.86 1021.08 1021.30 1021.62 1021.89 1022.11 1022.35 1022.56 1022.75 1022.89 1023.08 1023.23 1023.31 1023.43 1023.52
1007.28 1007.96 1008.85 1009.58 1010.04 1011.25 1012.24 1012.90 1013.50 1014.54 1015.10 1015.74 1016.73 1017.31 1017.77 1018.13 1018.26 1018.96 1019.60 1019.49 1019.80 1019.86 1020.05 1020.27 1020.46 1020.72 1020.96 1021.30 1021.52 1021.64 1021.85 1022.15 1022.33 1022.54 1022.57 1022.69 1022.87 1022.95
1005.96 1006.84 1007.49 1008.09 1008.89 1009.91 1010.98 1011.89 1012.67 1013.49 1014.13 1014.83 1016.01 1016.50 1016.97 1017.56 1017.62 1018.05 1018.56 1019.04 1019.33 1019.30 1019.50 1019.64 1020.04 1020.22 1020.35 1020.59 1020.75 1021.01 1021.35 1021.51 1021.71 1021.78 1021.90 1022.09 1022.25 1022.35
1004.63 1005.52 1006.35 1007.17 1008.06 1008.55 1009.41 1010.63 1011.10 1012.08 1012.84 1013.24 1014.25 1014.84 1015.46 1015.77 1016.35 1017.05 1017.83 1018.92 1019.47 1018.66 1019.23 1019.26 1019.45 1019.63 1019.55 1019.88 1020.16 1020.45 1020.61 1020.92 1021.11 1021.09 1021.23 1021.39 1021.43 1021.60
1003.29 1003.98 1005.16 1006.01 1007.16 1007.76 1008.38 1009.37 1010.29 1010.89 1011.35 1011.89 1012.71 1013.30 1014.00 1014.40 1015.35 1016.32 1017.00 1017.59 1017.98 1018.34 1018.61 1018.97 1019.23 1019.29 1019.06 1019.39 1019.40 1019.88 1019.99 1020.24 1020.52 1020.59 1020.71 1020.76 1020.83 1020.96
1001.62 1002.36 1003.61 1004.66 1005.52 1006.44 1007.34 1008.51 1009.26 1009.87 1010.54 1011.13 1011.47 1011.95 1012.68 1013.33 1014.06 1014.73 1015.60 1016.73 1017.53 1017.73 1017.95 1018.76 1018.66 1018.88 1019.01 1019.07 1019.20 1019.47 1019.57 1019.64 1019.88 1020.01 1020.12 1020.21 1020.33 1020.43
1000.27 1000.93 1002.14 1003.28 1004.03 1005.19 1006.08 1006.83 1008.01 1008.88 1009.71 1009.94 1010.54 1010.83 1011.95 1012.59 1013.30 1014.32 1015.44 1016.66 1017.20 1017.41 1017.39 1018.03 1018.50 1018.76 1019.13 1019.02 1019.03 1019.15 1019.21 1019.37 1019.47 1019.58 1019.73 1019.93 1019.88 1019.94
998.82 999.91 1000.79 1001.73 1002.94 1004.23 1004.82 1005.98 1006.67 1007.34 1008.70 1009.92 1010.35 1011.16 1011.44 1012.07 1012.62 1013.18 1014.28 1015.29 1016.14 1017.13 1017.04 1017.60 1018.13 1018.79 1019.17 1018.83 1019.05 1019.00 1019.05 1019.14 1019.31 1019.21 1019.23 1019.39 1019.61 1019.92
997.56 998.93 999.88 1000.73 1001.43 1003.10 1003.84 1004.54 1004.98 1006.19 1007.54 1008.48 1008.95 1010.07 1010.86 1011.65 1012.17 1012.70 1013.15 1013.72 1015.05 1015.49 1015.26 1016.14 1017.48 1018.24 1018.49 1018.92 1018.99 1018.87 1018.96 1019.00 1019.16 1019.05 1018.91 1019.02 1019.34 1019.62
997.17 998.02 998.78 1000.07 1000.91 1001.93 1003.12 1003.65 1004.35 1005.26 1006.39 1007.60 1008.41 1009.45 1010.21 1010.90 1011.56 1012.22 1012.62 1013.36 1013.64 1013.97 1014.69 1015.01 1016.31 1017.07 1017.86 1018.64 1018.78 1018.80 1018.95 1019.06 1019.19 1019.05 1019.01 1018.90 1019.00 1019.35
997.24 997.07 998.04 999.37 1000.03 1001.26 1002.05 1003.18 1004.00 1004.86 1005.81 1006.94 1007.81 1008.84 1009.42 1010.12 1011.12 1012.05 1013.08 1013.65 1014.24 1014.60 1014.70 1014.94 1015.36 1016.31 1017.05 1017.48 1017.99 1018.35 1018.76 1018.95 1018.94 1019.12 1019.21 1019.21 1019.06 1019.15
996.37 996.73 997.60 998.48 999.34 1000.02 1001.49 1002.30 1002.98 1003.93 1004.94 1006.13 1007.37 1008.63 1009.56 1010.42 1011.09 1011.55 1012.90 1013.66 1014.47 1015.20 1015.23 1015.21 1015.44 1015.76 1016.69 1017.15 1017.53 1018.13 1018.38 1018.87 1018.88 1019.12 1019.25 1019.21 1019.35 1019.49
995.35 996.25 997.37 998.24 998.95 999.74 1000.81 1001.30 1002.32 1003.51 1004.59 1005.68 1007.03 1008.24 1009.46 1010.25 1010.78 1011.32 1011.90 1013.04 1013.77 1014.65 1015.33 1015.80 1015.92 1016.09 1016.55 1016.87 1017.51 1017.86 1018.28 1018.71 1018.89 1019.04 1019.34 1019.37 1019.30 1019.49
996.50 997.75 998.19 998.56 998.55 999.96 1000.59 1001.44 1002.22 1002.84 1003.90 1005.18 1006.56 1007.70 1008.81 1009.64 1010.43 1011.19 1011.66 1012.19 1012.99 1013.97 1014.81 1015.53 1016.02 1016.52 1017.05 1017.33 1017.46 1017.71 1018.18 1018.50 1018.90 1019.19 1019.40 1019.46 1019.47 1019.56
998.38 999.75 999.94 1000.20 1000.25 1001.30 1000.92 1001.66 1003.23 1003.77 1004.16 1005.26 1006.36 1007.33 1008.30 1009.21 1009.87 1010.72 1011.36 1011.97 1012.99 1013.75 1014.52 1015.14 1015.82 1016.01 1016.71 1017.20 1018.01 1017.97 1018.17 1018.64 1018.95 1019.30 1019.55 1019.74 1019.94 1019.97
1001.05 1001.18 1001.77 1002.06 1002.49 1002.36 1002.43 1003.31 1003.79 1004.59 1005.20 1006.08 1006.80 1007.56 1008.21 1008.74 1009.65 1010.48 1011.11 1011.86 1012.71 1013.73 1014.58 1015.30 1015.58 1015.88 1016.31 1016.93 1017.65 1018.60 1018.65 1018.92 1019.08 1019.46 1019.82 1019.92 1019.91 1019.78
1003.34 1002.99 1003.18 1004.11 1004.36 1003.74 1003.83 1004.65 1005.19 1005.61 1006.31 1006.92 1007.71 1008.07 1008.61 1008.84 1009.74 1010.67 1011.44 1011.96 1012.76 1013.70 1014.71 1015.38 1015.80 1016.16 1016.79 1017.17 1017.96 1018.95 1019.20 1019.02 1019.24 1019.52 1020.04 1020.25 1020.07 1020.01
1005.00 1005.83 1005.90 1006.52 1006.40 1006.33 1005.96 1006.15 1006.83 1007.39 1007.59 1007.94 1008.46 1008.97 1009.30 1009.66 1010.37 1011.14 1011.77 1012.58 1013.45 1014.10 1015.01 1015.90 1016.41 1016.88 1017.30 1017.80 1018.69 1019.20 1019.44 1019.51 1019.60 1019.63 1019.73 1019.91 1020.14 1020.12
1008.09 1008.54 1008.53 1008.62 1008.53 1008.59 1008.47 1008.46 1008.78 1008.95 1009.15 1009.32 1009.54 1009.86 1010.56 1010.90 1011.41 1011.97 1012.62 1013.36 1014.12 1014.87 1015.58 1016.49 1017.14 1017.61 1018.09 1018.55 1019.13 1019.63 1019.90 1020.08 1020.16 1020.07 1019.92 1019.69 1019.68 1019.58
Wind_Speed
14 14 12 10 10 8 7 6 6 6 10 7 4 9 8 7 9 9 12 14 20 21 20 19 15 8 9 15 19 20 18 17 16 21 22 22 22 22
11 14 13 11 11 10 10 8 7 6 6 10 10 5 10 8 9 11 10 12 17 19 19 17 16 14 12 12 11 10 12 16 23 23 26 26 24 25
18 17 17 16 10 11 9 9 8 5 7 3 4 6 7 10 8 9 7 9 7 16 19 19 19 16 15 16 14 13 14 12 12 14 22 23 26 26
19 19 20 13 16 15 11 12 10 7 5 6 5 4 5 7 9 11 8 7 7 10 17 17 15 16 16 15 12 13 13 14 14 15 15 18 22 25
21 21 20 19 18 14 13 14 11 8 5 4 5 2 2 2 3 2 5 6 7 8 13 14 15 15 15 13 12 12 13 14 15 16 16 16 15 17
22 22 21 21 21 19 16 16 13 11 8 5 4 4 3 2 3 5 4 3 6 4 7 8 11 14 13 12 13 13 13 12 12 13 12 13 14 14
20 20 20 21 22 20 13 14 15 12 10 11 5 4 4 4 8 4 4 3 5 4 5 5 5 5 6 11 8 11 12 12 12 13 13 13 13 15
20 20 19 18 20 22 19 18 17 16 14 12 11 10 10 8 4 7 6 4 3 5 6 6 6 6 6 5 9 11 11 12 13 13 13 14 13 14
21 18 17 15 20 19 23 20 19 18 16 13 14 12 12 10 8 6 7 5 5 3 3 4 3 5 3 4 12 13 12 12 12 12 12 12 12 13
23 21 20 19 20 20 19 19 17 17 18 11 14 13 12 10 12 9 8 4 3 3 3 4 3 4 2 3 8 7 8 9 11 12 12 12 13 13
19 21 21 20 22 26 20 18 17 16 15 20 16 12 14 13 11 8 5 5 3 4 4 4 3 2 1 3 4 9 5 2 5 9 10 12 12 13
16 18 23 21 20 27 20 17 18 17 14 13 9 6 10 13 18 12 9 8 4 1 5 6 4 4 2 1 2 3 2 6 7 7 9 10 10 5
13 13 13 25 23 28 28 17 18 15 16 14 12 10 8 9 9 8 10 9 5 4 6 5 3 3 2 1 1 2 3 2 3 3 6 8 12 11
14 12 14 24 26 27 24 19 16 17 10 10 10 9 8 8 8 9 8 4 2 4 9 7 5 5 4 2 3 2 2 2 2 1 1 4 13 15
14 14 16 25 25 22 27 20 20 12 10 9 9 7 8 7 6 6 6 7 6 4 3 4 4 4 3 3 3 3 3 2 2 2 1 1 2 2
16 14 17 21 23 18 16 17 13 11 10 9 8 4 4 5 3 4 4 4 3 2 4 4 4 5 3 2 2 2 2 2 2 2 1 1 0 2
12 10 8 12 12 9 10 12 9 9 8 7 5 6 5 5 3 4 3 4 3 5 4 2 4 5 4 4 2 2 3 2 1 2 2 1 1 2
11 8 5 3 8 4 10 6 4 10 8 6 6 7 7 7 6 4 2 4 5 4 4 3 3 3 2 2 3 2 2 2 2 2 1 1 1 1
13 10 10 8 8 6 6 6 3 2 6 6 7 7 7 6 9 7 6 6 4 4 4 4 3 3 3 4 1 4 2 2 2 2 2 2 1 1
13 13 11 11 7 9 9 8 8 7 7 6 6 6 6 7 7 6 6 6 7 3 4 3 2 2 2 3 3 2 5 2 2 1 1 1 2 8
13 13 13 11 10 10 11 10 10 9 8 8 6 6 6 7 7 6 6 10 10 5 6 3 2 8 4 3 3 2 1 6 4 2 2 2 1 3
14 13 12 11 10 10 11 11 10 10 10 9 9 7 7 8 8 8 7 7 6 6 6 5 5 3 3 3 2 2 1 2 4 2 4 3 3 2
12 11 11 10 10 9 10 10 11 10 10 9 9 9 8 8 7 7 7 7 7 7 6 4 2 3 2 3 3 2 2 1 1 2 2 6 9 12
Wind_Direction
205 202 201 197 191 181 175 164 153 185 218 204 202 204 199 198 194 201 206 208 210 213 222 232 241 225 233 236 237 241 243 232 223 229 220 216 222 234
198 201 202 196 197 193 187 185 189 169 203 204 209 193 196 204 196 196 201 197 210 216 222 224 232 234 223 232 235 244 255 241 224 221 226 225 220 228
201 198 202 198 191 196 191 190 191 161 202 206 190 188 190 201 197 204 196 205 207 211 220 224 228 231 238 241 236 238 239 243 252 247 230 235 232 230
195 197 209 195 198 197 193 195 197 187 156 175 183 190 193 201 199 197 203 210 212 212 217 220 220 225 233 237 232 232 237 235 239 242 249 252 244 243
196 201 204 196 201 197 198 202 194 192 182 145 181 138 167 160 149 162 183 206 213 214 216 221 223 223 224 225 227 230 230 230 230 238 243 250 251 253
201 201 202 200 200 199 197 201 199 196 188 179 159 159 168 177 140 183 213 199 215 192 214 214 211 221 219 220 226 228 231 235 235 242 240 240 242 240
200 202 203 201 198 196 190 198 194 197 195 202 188 158 166 167 198 163 194 162 229 192 208 217 209 210 223 225 229 226 233 233 234 236 238 237 234 234
198 202 202 189 189 190 192 198 194 191 194 190 198 201 197 196 161 186 178 153 243 193 194 237 174 219 219 204 212 216 222 233 238 238 239 239 236 230
199 193 196 192 195 198 196 188 190 192 195 190 196 199 204 199 148 148 181 177 192 172 149 234 163 230 205 208 199 218 225 233 240 243 242 236 235 228
198 194 197 196 192 190 189 196 198 195 199 198 205 202 210 180 183 193 187 184 69 138 138 205 168 222 186 197 199 209 230 239 243 241 239 239 234 222
197 193 196 196 186 187 191 193 197 204 208 199 205 183 174 166 173 138 151 149 193 211 186 162 202 193 218 213 201 210 205 254 281 250 245 245 234 213
185 196 190 195 179 186 193 197 197 199 188 195 194 186 174 178 166 184 166 178 138 154 213 175 150 146 272 208 228 205 231 261 265 262 241 238 220 182
184 195 196 190 177 188 195 198 200 181 190 191 190 190 178 175 175 189 178 174 167 203 180 131 154 140 132 208 270 197 199 216 244 265 264 226 193 178
208 194 197 183 176 182 190 195 178 175 181 184 176 178 179 178 182 184 180 160 151 175 168 147 155 160 159 155 207 176 229 229 225 266 267 266 203 200
215 189 178 178 175 181 190 183 166 180 171 171 170 173 184 174 119 92 71 93 72 50 113 149 136 141 136 162 167 174 152 214 195 209 226 200 215 172
199 174 178 182 188 189 184 175 178 172 166 168 169 127 106 130 137 135 133 142 116 107 40 56 139 136 145 143 123 144 158 187 166 196 209 178 160 6
181 159 167 179 180 174 178 174 158 159 152 141 137 141 145 149 128 149 117 136 139 154 145 90 72 84 58 127 143 157 149 179 196 152 157 222 236 197
71 48 57 108 135 132 150 138 129 150 144 136 139 153 159 163 154 147 118 160 152 140 128 127 136 103 87 48 34 132 138 151 148 146 97 184 299 198
69 73 48 35 77 88 96 69 94 60 100 126 144 150 146 149 148 158 145 133 113 118 120 132 151 129 138 169 94 22 135 131 132 148 164 167 257 333
50 57 56 45 27 75 73 77 79 72 78 96 103 117 129 137 134 137 139 131 129 108 110 107 121 110 127 149 135 79 24 115 115 98 21 354 273 277
47 49 48 45 33 52 61 71 66 73 79 82 84 95 105 113 104 105 112 115 116 106 116 102 95 105 99 99 88 78 13 47 95 124 147 98 330 331
42 38 45 44 44 45 55 57 66 62 66 68 69 68 75 87 93 97 96 99 97 100 95 89 77 79 64 74 90 95 53 31 11 318 207 208 157 285
40 39 37 38 41 42 49 55 57 59 58 62 65 67 64 74 77 82 88 93 101 100 100 91 74 54 63 78 104 101 87 56 24 6 314 258 263 270